This demonstration page uses our WeatherBlox Daily Observations layout. Learn more.

Left ArrowRight Arrow

Hourly Observations for September 20, 2018

Temp ( °F °C ) Dew Point ( °F °C ) Humidity (%) Winds ( mph kmh ) Pressure ( in mb ) Visibility ( mi km ) Precip ( " mm )
12:57 am 00:57 Clear 76 24.4 64 17.8 67 67 S 16 26 29.70 1006 10 16 0.00 0.00
1:57 am 01:57 Clear 78 25.6 64 17.8 62 62 S 21 33 29.67 1005 10 16 0.00 0.00
2:57 am 02:57 Clear 76 24.4 64 17.8 67 67 S 22 35 29.66 1004 10 16 0.00 0.00
3:57 am 03:57 Cloudy 75 23.9 64 17.8 69 69 S 15 24 29.66 1005 10 16 0.00 0.00
4:57 am 04:57 Clear 74 23.3 64 17.8 71 71 S 13 20 29.66 1004 10 16 0.00 0.00
5:57 am 05:57 Clear 72 22.2 64 17.8 76 76 S 13 20 29.66 1004 10 16 0.00 0.00
6:57 am 06:57 Clear 72 22.2 64 17.8 76 76 S 13 20 29.66 1004 10 16 0.00 0.00
7:57 am 07:57 Mostly Sunny 72 22.2 64 17.8 76 76 S 17 28 29.66 1004 10 16 0.00 0.00
8:57 am 08:57 Sunny 74 23.3 64 17.8 71 71 S 17 28 29.67 1005 10 16 0.00 0.00
9:57 am 09:57 Sunny 78 25.6 65 18.3 64 64 SSW 21 33 29.66 1004 10 16 0.00 0.00
10:57 am 10:57 Sunny 81 27.2 65 18.3 58 58 WSW 22 35 29.66 1005 10 16 0.00 0.00
11:57 am 11:57 Sunny 81 27.2 65 18.3 58 58 SW 23 37 29.67 1005 10 16 0.00 0.00
12:57 pm 12:57 Mostly Sunny 82 27.8 66 18.9 58 58 WSW 15 24 29.67 1005 10 16 0.00 0.00
1:57 pm 13:57 Cloudy 78 25.6 66 18.9 67 67 NW 14 22 29.68 1005 10 16 0.00 0.00
2:07 pm 14:07 Cloudy 79 26 66 19 65 65 WNW 13 20 29.62 1003 10 16 0.00 0.00
2:57 pm 14:57 Mostly Cloudy 80 26.7 65 18.3 60 60 W 12 19 29.68 1005 10 16 0.00 0.00
3:57 pm 15:57 Partly Cloudy 82 27.8 61 16.1 49 49 VRB 5 7 29.66 1004 10 16 0.00 0.00
4:57 pm 16:57 Mostly Cloudy 76 24.4 67 19.4 74 74 W 7 11 29.69 1005 10 16 0.00 0.00
5:57 pm 17:57 Partly Cloudy 77 25 65 18.3 66 66 W 8 13 29.67 1005 10 16 0.00 0.00
6:57 pm 18:57 Cloudy 72 22.2 67 19.4 84 84 S 6 9 29.74 1007 10 16 0.01 0.25
7:57 pm 19:57 Cloudy 71 21.7 67 19.4 87 87 W 6 9 29.78 1009 10 16 0.00 0.00
8:57 pm 20:57 Mostly Cloudy 70 21.1 67 19.4 90 90 WNW 3 6 29.79 1009 10 16 0.00 0.00
9:31 pm 21:31 Mostly Cloudy 68 20 64 18 88 88 N 17 28 29.80 1009 10 16 0.00 0.00
9:57 pm 21:57 Partly Cloudy 68 20 62 16.7 81 81 N 12 19 29.85 1011 10 16 0.00 0.00
10:57 pm 22:57 Mostly Cloudy 66 18.9 59 15 78 78 NNW 15 24 29.91 1013 10 16 0.00 0.00
11:57 pm 23:57 Mostly Clear 62 16.7 54 12.2 75 75 N 16 26 29.96 1015 10 16 0.00 0.00

Powered by AerisWeather